Location: Copeville
(33.0796°N, 96.4155°W)
Time: 23:09:07
(UTC+00:00)

JUGNU - Pass Details

Date: 25 April 2024
Orbit: 835 x 862 km, 20.0° (Epoch: 18 May)

Event Time Altitude Azimuth Distance (km) Brightness Sun altitude
Rises 02:14:09 0° 249° (WSW) 3,365 ? -14.6°
Reaches altitude 10° 02:17:54 10° 225° (SW) 2,434 ? -15.3°
Maximum altitude 02:20:57 14° 194° (SSW) 2,134 ? -15.9°
Enters shadow 02:23:22 12° 167° (SSE) 2,331 ? -16.3°
